DW3195 Weather Reports


time (UTC)temp
F
wind
direction
speed
knots
gust
knots
rain 1hr
in
rain 24hr
in
rain mn
in
humidity
%
barometer
mb
20260504024006 36 35 0.0 1.7 0.00 0.00 0.00 86 925.0
20260504023506 37 181 0.0 0.9 0.00 0.00 0.00 86 925.0
20260504021506 37 107 0.0 0.9 0.00 0.00 0.00 83 924.8
20260504021006 38 59 0.0 0.9 0.00 0.00 0.00 83 924.8
20260504020506 38 126 0.0 0.9 0.00 0.00 0.00 81 924.8
20260504020006 39 87 0.0 0.9 0.00 0.00 0.00 82 924.7
20260504014506 40 40 0.0 1.7 0.00 0.00 0.00 77 924.6
20260504014007 40 28 0.0 1.7 0.00 0.00 0.00 77 924.5
20260504013506 41 63 0.0 0.9 0.00 0.00 0.00 74 924.5
20260504013005 41 4 0.9 2.6 0.00 0.00 0.00 74 924.4
20260504011506 42 9 0.9 1.7 0.00 0.00 0.00 72 924.4
20260504011005 42 9 0.9 1.7 0.00 0.00 0.00 71 924.2
20260504010505 43 337 0.0 0.9 0.00 0.00 0.00 70 924.2
20260504010006 44 0 0.9 1.7 0.00 0.00 0.00 69 924.1
20260504004505 46 21 0.9 1.7 0.00 0.00 0.00 64 924.1
20260504004005 46 16 0.0 1.7 0.00 0.00 0.00 61 924.1
20260504003505 47 18 0.9 2.6 0.00 0.00 0.00 60 924.0
20260504003005 48 10 0.0 2.6 0.00 0.00 0.00 58 924.0
20260504001505 50 19 2.6 2.6 0.00 0.00 0.00 54 923.7
20260504000005 52 349 1.7 2.6 0.00 0.00 0.00 47 923.7
20260503234505 54 9 0.9 2.6 0.00 0.00 0.00 42 923.7
20260503234005 55 347 1.7 6.1 0.00 0.00 0.00 41 923.7
20260503233505 56 355 1.7 6.1 0.00 0.00 0.00 41 923.7
20260503233006 56 349 2.6 7.8 0.00 0.00 0.00 38 923.7
20260503231505 58 355 1.7 4.3 0.00 0.00 0.00 37 923.9
20260503231005 59 322 2.6 6.1 0.00 0.00 0.00 36 923.9
20260503230506 59 340 4.3 7.0 0.00 0.00 0.00 35 923.9
20260503224505 61 299 3.5 7.0 0.00 0.00 0.00 35 923.9
20260503224006 62 289 1.7 7.0 0.00 0.00 0.00 33 923.9
20260503223505 62 274 3.5 6.1 0.00 0.00 0.00 33 924.0
20260503223005 62 299 2.6 7.8 0.00 0.00 0.00 33 924.0
20260503221505 62 307 2.6 5.2 0.00 0.00 0.00 33 923.9
20260503221005 61 292 2.6 6.1 0.00 0.00 0.00 31 923.9
20260503220505 61 342 2.6 7.0 0.00 0.00 0.00 30 924.0
20260503214505 61 302 3.5 7.0 0.00 0.00 0.00 32 924.0
20260503214004 61 283 2.6 5.2 0.00 0.00 0.00 32 924.0
20260503213505 61 61 2.6 7.0 0.00 0.00 0.00 32 924.1
20260503213005 60 349 2.6 8.7 0.00 0.00 0.00 31 924.1
20260503211505 60 287 4.3 6.1 0.00 0.00 0.00 32 924.2
20260503211005 60 298 2.6 7.0 0.00 0.00 0.00 34 924.3
20260503210504 60 336 4.3 7.0 0.00 0.00 0.00 33 924.3
20260503210005 60 330 3.5 11.3 0.00 0.00 0.00 34 924.3
20260503204504 60 314 4.3 7.8 0.00 0.00 0.00 32 924.2
20260503203505 60 302 3.5 10.4 0.00 0.00 0.00 31 924.3
20260503203005 60 278 4.3 10.4 0.00 0.00 0.00 32 924.4
20260503201504 60 301 3.5 7.0 0.00 0.00 0.00 35 924.8
20260503201005 59 6 1.7 7.0 0.00 0.00 0.00 35 924.8
20260503200505 59 20 2.6 7.0 0.00 0.00 0.00 35 924.9
20260503200004 58 348 2.6 7.8 0.00 0.00 0.00 36 924.9
20260503194504 58 308 2.6 6.1 0.00 0.00 0.00 34 925.2
20260503194005 58 282 1.7 7.0 0.00 0.00 0.00 35 925.2
20260503193504 58 108 4.3 7.8 0.00 0.00 0.00 36 925.4
20260503191504 57 299 2.6 6.1 0.00 0.00 0.00 35 925.6
20260503191004 56 273 4.3 11.3 0.00 0.00 0.00 37 925.6
20260503190005 57 286 4.3 10.4 0.00 0.00 0.00 38 926.0
20260503184504 56 278 0.9 7.8 0.00 0.00 0.00 38 926.1
20260503184005 55 255 2.6 7.8 0.00 0.00 0.00 40 926.2
20260503183504 54 286 2.6 6.1 0.00 0.00 0.00 36 926.2
20260503183004 54 150 3.5 8.7 0.00 0.00 0.00 37 926.2
20260503181505 55 285 4.3 7.8 0.00 0.00 0.00 33 926.2
20260503181006 55 188 2.6 6.1 0.00 0.00 0.00 36 926.3
20260503180006 54 331 2.6 7.8 0.00 0.00 0.00 36 926.4
20260503174006 54 280 3.5 7.0 0.00 0.00 0.00 38 926.7
20260503173506 53 295 5.2 8.7 0.00 0.00 0.00 38 926.8
20260503173006 53 285 3.5 7.8 0.00 0.00 0.00 38 926.8
20260503171505 53 279 1.7 5.2 0.00 0.00 0.00 40 926.8
20260503171005 53 151 2.6 6.1 0.00 0.00 0.00 39 926.9
20260503170506 52 268 2.6 5.2 0.00 0.00 0.00 41 926.9
20260503151005 48 185 1.7 5.2 0.00 0.00 0.00 44 927.6
20260503150506 48 238 4.3 7.8 0.00 0.00 0.00 48 927.8
20260503130505 42 281 1.7 6.1 0.00 0.00 0.00 55 927.6
20260503110505 26 47 0.0 0.9 0.00 0.00 0.00 99 926.3
20260503090505 27 358 0.0 0.9 0.00 0.00 0.00 97 925.4
20260503081506 29 37 0.0 0.9 0.00 0.00 0.00 97 925.0
20260503081005 29 7 0.0 1.7 0.00 0.00 0.00 97 925.0
20260503080506 29 31 0.0 0.9 0.00 0.00 0.00 96 925.0
20260503071505 29 349 0.0 1.7 0.00 0.00 0.00 96 924.7
20260503071005 29 34 0.0 0.9 0.00 0.00 0.00 96 924.6
20260503070505 29 201 0.0 1.7 0.00 0.00 0.00 96 924.5
20260503054505 31 86 0.9 1.7 0.00 0.00 0.00 94 924.5
20260503054005 31 24 0.0 1.7 0.00 0.00 0.00 94 924.4
20260503051006 33 25 0.9 1.7 0.00 0.00 0.00 90 924.3
20260503050505 33 70 0.0 0.9 0.00 0.00 0.00 90 924.3
20260503050005 33 12 0.9 1.7 0.00 0.00 0.00 90 924.2
20260503044505 33 142 0.9 2.6 0.00 0.00 0.00 90 924.2
20260503044005 33 263 0.9 2.6 0.00 0.00 0.00 90 924.2
20260503043505 33 15 1.7 1.7 0.00 0.00 0.00 90 924.2
20260503043005 33 6 0.9 4.3 0.00 0.00 0.00 89 924.2
20260503040506 33 61 0.0 1.7 0.00 0.00 0.00 90 924.0
20260503040005 34 97 0.9 1.7 0.00 0.00 0.00 90 924.0
20260503033505 35 33 0.0 1.7 0.00 0.00 0.00 89 924.0
20260503033005 35 30 0.0 2.6 0.00 0.00 0.00 90 924.0
20260503031505 34 31 0.0 0.9 0.00 0.00 0.00 90 924.0
20260503031007 33 14 0.0 1.7 0.00 0.00 0.00 91 923.9
20260503030505 33 169 0.9 1.7 0.00 0.00 0.00 91 924.0
20260503030005 33 19 0.9 1.7 0.00 0.00 0.00 91 924.0
20260503024504 33 51 0.9 0.9 0.00 0.00 0.00 89 923.9